Time,TemperatureF,DewpointF,PressureIn,WindDirection,WindDirectionDegrees,WindSpeedMPH,WindSpeedGustMPH,Humidity,HourlyPrecipIn,Conditions,Clouds,dailyrainin,SoftwareType,DateUTC
2013-08-21 00:04:00,54.5,53.0,30.11,SSW,211,0.0,0.0,93,0.00,,,0.00,weatherlink.com 1.10,2013-08-21 07:04:00,
2013-08-21 00:19:00,54.2,52.0,30.11,SSW,211,0.0,0.0,93,0.00,,,0.00,weatherlink.com 1.10,2013-08-21 07:19:00,
2013-08-21 00:34:00,53.9,52.0,30.10,SSW,211,0.0,0.0,94,0.00,,,0.00,weatherlink.com 1.10,2013-08-21 07:34:00,
2013-08-21 00:49:00,53.8,52.0,30.11,SSW,211,0.0,0.0,94,0.00,,,0.00,weatherlink.com 1.10,2013-08-21 07:49:00,
2013-08-21 01:04:00,53.6,52.0,30.11,SSW,211,0.0,0.0,95,0.00,,,0.00,weatherlink.com 1.10,2013-08-21 08:04:00,
2013-08-21 01:19:00,53.6,52.0,30.11,SSW,211,0.0,0.0,95,0.00,,,0.00,weatherlink.com 1.10,2013-08-21 08:19:00,
2013-08-21 01:34:00,53.6,52.0,30.11,SSW,211,0.0,1.0,95,0.00,,,0.00,weatherlink.com 1.10,2013-08-21 08:34:00,
2013-08-21 01:50:00,53.4,52.0,30.11,SSW,211,0.0,0.0,95,0.00,,,0.00,weatherlink.com 1.10,2013-08-21 08:50:00,
2013-08-21 02:05:00,53.6,53.0,30.11,SSE,155,0.0,1.0,96,0.00,,,0.00,weatherlink.com 1.10,2013-08-21 09:05:00,
2013-08-21 02:20:00,53.9,53.0,30.11,SSE,155,0.0,1.0,95,0.00,,,0.00,weatherlink.com 1.10,2013-08-21 09:20:00,
2013-08-21 02:35:00,53.8,52.0,30.10,SSE,155,0.0,0.0,95,0.00,,,0.00,weatherlink.com 1.10,2013-08-21 09:35:00,
2013-08-21 02:50:00,53.6,52.0,30.10,SSE,155,0.0,2.0,95,0.00,,,0.00,weatherlink.com 1.10,2013-08-21 09:50:00,
2013-08-21 03:05:00,54.1,53.0,30.10,SE,137,0.0,4.0,95,0.00,,,0.00,weatherlink.com 1.10,2013-08-21 10:05:00,
2013-08-21 03:20:00,54.4,53.0,30.10,East,98,1.0,5.0,93,0.00,,,0.00,weatherlink.com 1.10,2013-08-21 10:20:00,
2013-08-21 03:35:00,54.5,53.0,30.09,ESE,113,0.0,2.0,93,0.00,,,0.00,weatherlink.com 1.10,2013-08-21 10:35:00,
2013-08-21 03:50:00,54.4,53.0,30.09,ESE,114,3.0,3.0,93,0.00,,,0.00,weatherlink.com 1.10,2013-08-21 10:50:00,
2013-08-21 04:05:00,54.8,53.0,30.09,East,87,1.0,3.0,92,0.00,,,0.00,weatherlink.com 1.10,2013-08-21 11:05:00,
2013-08-21 04:20:00,54.9,52.0,30.09,ESE,111,5.0,6.0,91,0.00,,,0.00,weatherlink.com 1.10,2013-08-21 11:20:00,
2013-08-21 04:35:00,54.9,52.0,30.09,East,97,0.0,5.0,91,0.00,,,0.00,weatherlink.com 1.10,2013-08-21 11:35:00,
2013-08-21 04:50:00,54.2,52.0,30.09,East,99,0.0,3.0,92,0.00,,,0.00,weatherlink.com 1.10,2013-08-21 11:50:00,
2013-08-21 05:05:00,54.4,52.0,30.09,East,101,0.0,5.0,91,0.00,,,0.00,weatherlink.com 1.10,2013-08-21 12:05:00,
2013-08-21 05:20:00,54.1,52.0,30.09,ESE,106,0.0,3.0,92,0.00,,,0.00,weatherlink.com 1.10,2013-08-21 12:20:00,
2013-08-21 05:35:00,53.9,52.0,30.09,East,100,0.0,5.0,92,0.00,,,0.00,weatherlink.com 1.10,2013-08-21 12:35:00,
2013-08-21 05:50:00,53.4,51.0,30.09,East,100,0.0,1.0,92,0.00,,,0.00,weatherlink.com 1.10,2013-08-21 12:50:00,
2013-08-21 06:05:00,52.9,51.0,30.09,East,100,0.0,0.0,93,0.00,,,0.00,weatherlink.com 1.10,2013-08-21 13:05:00,
2013-08-21 06:20:00,52.8,51.0,30.09,East,100,0.0,2.0,94,0.00,,,0.00,weatherlink.com 1.10,2013-08-21 13:20:00,
2013-08-21 06:35:00,52.4,51.0,30.10,East,100,0.0,0.0,94,0.00,,,0.00,weatherlink.com 1.10,2013-08-21 13:35:00,
2013-08-21 06:50:00,52.2,51.0,30.11,East,100,0.0,0.0,94,0.00,,,0.00,weatherlink.com 1.10,2013-08-21 13:50:00,
2013-08-21 07:05:00,52.1,51.0,30.11,East,100,0.0,0.0,95,0.00,,,0.00,weatherlink.com 1.10,2013-08-21 14:05:00,
2013-08-21 07:20:00,52.1,51.0,30.11,East,101,0.0,2.0,95,0.00,,,0.00,weatherlink.com 1.10,2013-08-21 14:20:00,
2013-08-21 07:35:00,53.8,52.0,30.11,ENE,75,2.0,4.0,93,0.00,,,0.00,weatherlink.com 1.10,2013-08-21 14:35:00,
2013-08-21 07:50:00,55.5,52.0,30.11,ENE,62,4.0,7.0,89,0.00,,,0.00,weatherlink.com 1.10,2013-08-21 14:50:00,
2013-08-21 08:05:00,56.6,53.0,30.10,East,80,2.0,7.0,86,0.00,,,0.00,weatherlink.com 1.10,2013-08-21 15:05:00,
2013-08-21 08:20:00,57.5,53.0,30.10,East,98,5.0,9.0,84,0.00,,,0.00,weatherlink.com 1.10,2013-08-21 15:20:00,
2013-08-21 08:35:00,58.7,53.0,30.09,ESE,107,1.0,7.0,82,0.00,,,0.00,weatherlink.com 1.10,2013-08-21 15:35:00,
2013-08-21 08:50:00,60.2,54.0,30.09,East,98,5.0,6.0,79,0.00,,,0.00,weatherlink.com 1.10,2013-08-21 15:50:00,
2013-08-21 09:05:00,61.1,54.0,30.08,ESE,117,4.0,7.0,76,0.00,,,0.00,weatherlink.com 1.10,2013-08-21 16:05:00,
2013-08-21 09:20:00,62.8,54.0,30.07,East,79,1.0,3.0,74,0.00,,,0.00,weatherlink.com 1.10,2013-08-21 16:20:00,
2013-08-21 09:35:00,64.1,54.0,30.07,ENE,57,5.0,5.0,70,0.00,,,0.00,weatherlink.com 1.10,2013-08-21 16:35:00,
2013-08-21 09:50:00,65.9,55.0,30.07,ENE,61,0.0,4.0,67,0.00,,,0.00,weatherlink.com 1.10,2013-08-21 16:50:00,
2013-08-21 10:06:00,67.5,55.0,30.07,ENE,63,0.0,3.0,65,0.00,,,0.00,weatherlink.com 1.10,2013-08-21 17:06:00,
2013-08-21 10:21:00,67.7,55.0,30.07,West,267,1.0,4.0,65,0.00,,,0.00,weatherlink.com 1.10,2013-08-21 17:21:00,
2013-08-21 10:36:00,68.6,56.0,30.07,West,273,0.0,4.0,65,0.00,,,0.00,weatherlink.com 1.10,2013-08-21 17:36:00,
2013-08-21 10:51:00,70.1,57.0,30.06,West,278,0.0,4.0,64,0.00,,,0.00,weatherlink.com 1.10,2013-08-21 17:51:00,
2013-08-21 11:06:00,71.4,59.0,30.06,East,86,1.0,3.0,64,0.00,,,0.00,weatherlink.com 1.10,2013-08-21 18:06:00,
2013-08-21 11:21:00,72.8,58.0,30.05,ENE,69,0.0,2.0,61,0.00,,,0.00,weatherlink.com 1.10,2013-08-21 18:21:00,
2013-08-21 11:36:00,73.5,59.0,30.05,East,80,0.0,3.0,60,0.00,,,0.00,weatherlink.com 1.10,2013-08-21 18:36:00,
2013-08-21 11:51:00,73.4,59.0,30.04,NE,56,0.0,3.0,61,0.00,,,0.00,weatherlink.com 1.10,2013-08-21 18:51:00,
2013-08-21 12:06:00,74.8,58.0,30.04,NE,55,0.0,2.0,57,0.00,,,0.00,weatherlink.com 1.10,2013-08-21 19:06:00,
2013-08-21 12:21:00,75.4,59.0,30.03,East,80,0.0,1.0,57,0.00,,,0.00,weatherlink.com 1.10,2013-08-21 19:21:00,
2013-08-21 12:36:00,75.7,59.0,30.02,ENE,74,0.0,3.0,57,0.00,,,0.00,weatherlink.com 1.10,2013-08-21 19:36:00,
2013-08-21 12:51:00,75.8,59.0,30.02,East,94,0.0,5.0,56,0.00,,,0.00,weatherlink.com 1.10,2013-08-21 19:51:00,
2013-08-21 13:06:00,75.5,58.0,30.01,ESE,115,1.0,3.0,55,0.00,,,0.00,weatherlink.com 1.10,2013-08-21 20:06:00,
2013-08-21 13:21:00,75.5,59.0,30.01,East,96,0.0,3.0,56,0.00,,,0.00,weatherlink.com 1.10,2013-08-21 20:21:00,
2013-08-21 13:36:00,76.6,60.0,30.01,North,360,0.0,3.0,56,0.00,,,0.00,weatherlink.com 1.10,2013-08-21 20:36:00,
2013-08-21 13:51:00,76.8,60.0,30.00,NNE,28,0.0,2.0,56,0.00,,,0.00,weatherlink.com 1.10,2013-08-21 20:51:00,
2013-08-21 14:06:00,77.3,60.0,30.00,ENE,60,0.0,3.0,56,0.00,,,0.00,weatherlink.com 1.10,2013-08-21 21:06:00,
2013-08-21 14:21:00,78.0,60.0,30.00,ENE,64,0.0,3.0,54,0.00,,,0.00,weatherlink.com 1.10,2013-08-21 21:21:00,
2013-08-21 14:36:00,78.7,62.0,29.99,ENE,72,0.0,3.0,56,0.00,,,0.00,weatherlink.com 1.10,2013-08-21 21:36:00,
2013-08-21 14:51:00,79.3,62.0,29.98,ENE,72,0.0,2.0,55,0.00,,,0.00,weatherlink.com 1.10,2013-08-21 21:51:00,
2013-08-21 15:06:00,79.1,60.0,29.98,East,84,0.0,5.0,53,0.00,,,0.00,weatherlink.com 1.10,2013-08-21 22:06:00,
2013-08-21 15:22:00,78.5,61.0,29.98,East,86,0.0,2.0,56,0.00,,,0.00,weatherlink.com 1.10,2013-08-21 22:22:00,
2013-08-21 15:37:00,78.2,61.0,29.97,East,86,0.0,1.0,56,0.00,,,0.00,weatherlink.com 1.10,2013-08-21 22:37:00,
2013-08-21 15:52:00,77.8,63.0,29.97,East,86,0.0,2.0,60,0.00,,,0.00,weatherlink.com 1.10,2013-08-21 22:52:00,
2013-08-21 16:07:00,77.9,61.0,29.96,East,86,0.0,3.0,57,0.00,,,0.00,weatherlink.com 1.10,2013-08-21 23:07:00,
2013-08-21 16:22:00,77.9,62.0,29.95,NE,56,0.0,2.0,58,0.00,,,0.00,weatherlink.com 1.10,2013-08-21 23:22:00,
2013-08-21 16:37:00,77.8,63.0,29.95,NE,56,0.0,1.0,60,0.00,,,0.00,weatherlink.com 1.10,2013-08-21 23:37:00,
2013-08-21 16:52:00,77.4,63.0,29.95,East,96,0.0,3.0,62,0.00,,,0.00,weatherlink.com 1.10,2013-08-21 23:52:00,
2013-08-21 17:07:00,77.1,64.0,29.94,SSE,157,0.0,3.0,64,0.00,,,0.00,weatherlink.com 1.10,2013-08-22 00:07:00,
2013-08-21 17:22:00,76.9,63.0,29.94,South,171,0.0,2.0,63,0.00,,,0.00,weatherlink.com 1.10,2013-08-22 00:22:00,
2013-08-21 17:37:00,76.8,63.0,29.94,WSW,247,0.0,3.0,62,0.00,,,0.00,weatherlink.com 1.10,2013-08-22 00:37:00,
2013-08-21 17:52:00,77.0,63.0,29.94,SW,217,0.0,2.0,63,0.00,,,0.00,weatherlink.com 1.10,2013-08-22 00:52:00,
2013-08-21 18:07:00,75.9,63.0,29.94,South,171,3.0,3.0,65,0.00,,,0.00,weatherlink.com 1.10,2013-08-22 01:07:00,
2013-08-21 18:22:00,73.7,62.0,29.94,South,173,1.0,2.0,67,0.00,,,0.00,weatherlink.com 1.10,2013-08-22 01:22:00,
2013-08-21 18:37:00,72.4,62.0,29.94,South,173,0.0,2.0,69,0.00,,,0.00,weatherlink.com 1.10,2013-08-22 01:37:00,
2013-08-21 18:52:00,71.2,61.0,29.94,South,173,0.0,2.0,70,0.00,,,0.00,weatherlink.com 1.10,2013-08-22 01:52:00,
2013-08-21 19:07:00,70.3,61.0,29.94,South,173,0.0,1.0,72,0.00,,,0.00,weatherlink.com 1.10,2013-08-22 02:07:00,
2013-08-21 19:22:00,69.6,61.0,29.94,South,173,0.0,1.0,73,0.00,,,0.00,weatherlink.com 1.10,2013-08-22 02:22:00,
2013-08-21 19:37:00,68.7,60.0,29.94,South,173,0.0,0.0,74,0.00,,,0.00,weatherlink.com 1.10,2013-08-22 02:37:00,
2013-08-21 19:52:00,68.0,60.0,29.95,South,173,0.0,0.0,76,0.00,,,0.00,weatherlink.com 1.10,2013-08-22 02:52:00,
2013-08-21 20:07:00,67.2,60.0,29.95,South,173,0.0,0.0,78,0.00,,,0.00,weatherlink.com 1.10,2013-08-22 03:07:00,
2013-08-21 20:22:00,66.3,60.0,29.95,South,173,0.0,0.0,80,0.00,,,0.00,weatherlink.com 1.10,2013-08-22 03:22:00,
2013-08-21 20:37:00,65.4,59.0,29.96,South,173,0.0,0.0,81,0.00,,,0.00,weatherlink.com 1.10,2013-08-22 03:37:00,
2013-08-21 20:52:00,64.6,59.0,29.96,South,173,0.0,0.0,83,0.00,,,0.00,weatherlink.com 1.10,2013-08-22 03:52:00,
2013-08-21 21:07:00,63.9,59.0,29.97,South,173,0.0,0.0,85,0.00,,,0.00,weatherlink.com 1.10,2013-08-22 04:07:00,
2013-08-21 21:22:00,63.1,59.0,29.97,South,173,0.0,0.0,86,0.00,,,0.00,weatherlink.com 1.10,2013-08-22 04:22:00,
2013-08-21 21:37:00,62.5,59.0,29.97,South,173,0.0,0.0,87,0.00,,,0.00,weatherlink.com 1.10,2013-08-22 04:37:00,
2013-08-21 21:52:00,61.9,58.0,29.97,South,173,0.0,0.0,88,0.00,,,0.00,weatherlink.com 1.10,2013-08-22 04:52:00,
2013-08-21 22:07:00,61.4,58.0,29.97,South,173,0.0,0.0,89,0.00,,,0.00,weatherlink.com 1.10,2013-08-22 05:07:00,
2013-08-21 22:22:00,60.9,58.0,29.97,South,173,0.0,0.0,90,0.00,,,0.00,weatherlink.com 1.10,2013-08-22 05:22:00,
2013-08-21 22:37:00,60.6,58.0,29.97,South,173,0.0,0.0,91,0.00,,,0.00,weatherlink.com 1.10,2013-08-22 05:37:00,
2013-08-21 22:52:00,60.3,58.0,29.97,South,173,0.0,0.0,92,0.00,,,0.00,weatherlink.com 1.10,2013-08-22 05:52:00,
2013-08-21 23:07:00,60.1,58.0,29.97,South,173,0.0,0.0,92,0.00,,,0.00,weatherlink.com 1.10,2013-08-22 06:07:00,
2013-08-21 23:22:00,60.0,58.0,29.97,South,173,0.0,0.0,92,0.00,,,0.00,weatherlink.com 1.10,2013-08-22 06:22:00,
2013-08-21 23:37:00,59.9,58.0,29.97,South,173,0.0,0.0,92,0.00,,,0.00,weatherlink.com 1.10,2013-08-22 06:37:00,
2013-08-21 23:52:00,59.7,58.0,29.96,South,173,0.0,0.0,93,0.00,,,0.00,weatherlink.com 1.10,2013-08-22 06:52:00,